TimeCST,TemperatureF,Dew PointF,Humidity,Sea Level PressureIn,VisibilityMPH,Wind Direction,Wind SpeedMPH,Gust SpeedMPH,PrecipitationIn,Events,Conditions,WindDirDegrees,DateUTC
12:55 AM,44.6,26.6,49,30.14,10.0,SE,4.6,-,N/A,,Mostly Cloudy,140,2013-11-15 06:55:00
1:55 AM,42.8,28.4,57,30.14,10.0,SE,3.5,-,N/A,,Mostly Cloudy,130,2013-11-15 07:55:00
2:15 AM,42.8,28.4,57,30.14,10.0,Calm,Calm,-,N/A,,Clear,0,2013-11-15 08:15:00
2:35 AM,41.0,30.2,65,30.15,10.0,Calm,Calm,-,N/A,,Clear,0,2013-11-15 08:35:00
2:55 AM,41.0,30.2,65,30.15,10.0,SE,3.5,-,N/A,,Mostly Cloudy,130,2013-11-15 08:55:00
3:15 AM,42.8,30.2,61,30.15,10.0,Calm,Calm,-,N/A,,Overcast,0,2013-11-15 09:15:00
3:35 AM,44.6,32.0,61,30.15,10.0,ESE,3.5,-,N/A,,Overcast,120,2013-11-15 09:35:00
3:55 AM,44.6,32.0,61,30.15,10.0,Calm,Calm,-,N/A,,Overcast,0,2013-11-15 09:55:00
4:15 AM,44.6,32.0,61,30.15,10.0,Calm,Calm,-,N/A,,Mostly Cloudy,0,2013-11-15 10:15:00
4:35 AM,44.6,33.8,66,30.15,10.0,ESE,3.5,-,N/A,,Mostly Cloudy,120,2013-11-15 10:35:00
4:55 AM,44.6,33.8,66,30.15,10.0,Calm,Calm,-,N/A,,Mostly Cloudy,0,2013-11-15 10:55:00
5:55 AM,44.6,35.6,71,30.15,10.0,ESE,3.5,-,N/A,,Mostly Cloudy,120,2013-11-15 11:55:00
6:55 AM,42.8,39.2,87,30.16,10.0,Calm,Calm,-,N/A,Rain,Light Rain,0,2013-11-15 12:55:00
7:55 AM,42.8,41.0,93,30.17,10.0,Calm,Calm,-,N/A,Rain,Light Rain,0,2013-11-15 13:55:00
8:55 AM,44.6,42.8,93,30.16,10.0,ESE,3.5,-,N/A,,Overcast,120,2013-11-15 14:55:00
9:55 AM,46.4,44.6,93,30.14,10.0,Variable,3.5,-,N/A,Rain,Light Rain,0,2013-11-15 15:55:00
10:55 AM,48.2,46.4,93,30.15,10.0,Calm,Calm,-,N/A,Rain,Light Rain,0,2013-11-15 16:55:00
11:55 AM,50.0,46.4,87,30.10,10.0,SE,5.8,-,N/A,,Overcast,140,2013-11-15 17:55:00
12:55 PM,55.4,48.2,77,30.06,10.0,SSE,5.8,-,N/A,,Mostly Cloudy,150,2013-11-15 18:55:00
1:55 PM,57.2,48.2,72,30.04,10.0,SSE,3.5,-,N/A,,Mostly Cloudy,150,2013-11-15 19:55:00
2:55 PM,60.8,50.0,68,30.03,10.0,ESE,3.5,-,N/A,,Scattered Clouds,120,2013-11-15 20:55:00
3:55 PM,60.8,51.8,72,30.03,10.0,Variable,3.5,-,N/A,,Mostly Cloudy,0,2013-11-15 21:55:00
4:55 PM,57.2,51.8,82,30.04,10.0,Calm,Calm,-,N/A,,Mostly Cloudy,0,2013-11-15 22:55:00
5:55 PM,55.4,51.8,88,30.04,10.0,Calm,Calm,-,N/A,,Overcast,0,2013-11-15 23:55:00
6:55 PM,51.8,50.0,94,30.04,10.0,Calm,Calm,-,N/A,,Overcast,0,2013-11-16 00:55:00
7:55 PM,53.6,51.8,94,30.05,10.0,Variable,5.8,-,N/A,,Clear,0,2013-11-16 01:55:00
8:55 PM,53.6,51.8,94,30.06,10.0,ESE,4.6,-,N/A,,Overcast,120,2013-11-16 02:55:00
9:55 PM,53.6,53.6,100,30.06,9.0,SE,6.9,-,N/A,,Overcast,140,2013-11-16 03:55:00
10:55 PM,53.6,53.6,100,30.06,10.0,SE,6.9,-,N/A,,Overcast,130,2013-11-16 04:55:00
11:55 PM,53.6,53.6,100,30.04,10.0,SE,8.1,-,N/A,,Overcast,140,2013-11-16 05:55:00